Flag for Brazil Weather past 2 weeks in Joinville, Santa Catarina, Brazil

Now
68 °F

Partly sunny.


Feels Like: 68 °F
Forecast: 66 / 78 °F
Wind: 5 mph from Southeast

Location: Curitiba Aeroporto


UV Index: 0 (Low)

Visibility: N/A


Pressure: 30.18 "Hg

Humidity: 83%

Dew point: 63 °F

Location of JoinvilleLocation

Historic Weather in Joinville

°F

Joinville temperature yesterday

Maximum temperature yesterday: 79 °F (at 12:00 PM)
Minimum temperature yesterday: 61 °F (at 6:00 AM)
Average temperature yesterday: 68 °F

Past Weeks' High & Low Weather Summary

 TemperatureHumidityPressure
High91 °F (Apr 7, 8:00 AM)100% (Apr 6, 4:00 AM)30.27 "Hg (Apr 6, 4:00 AM)
Low55 °F (Apr 14, 6:00 PM)40% (Apr 7, 3:00 PM)29.95 "Hg (Apr 12, 5:00 AM)
Average66 °F90%30.10 "Hg
* Reported Apr 5 11:00 AM — Apr 20 11:00 AM, Joinville, Weather by CustomWeather, © 2014

Note: Actual official high and low records may vary slightly from our data, if they occured in-between our weather recording intervals... More about our weather records

Advertising

Historic Weather Conditions — Data for Previous 24 hours

 ConditionsComfort  
Time TempWeatherWind HumidityBarometerVisibility
11:00 AM
Apr 20
68 °FPartly sunny.5 mph83%30.18 "HgN/A
10:00 AM64 °FLow clouds.6 mph94%30.18 "HgN/A
9:00 AM64 °FMore clouds than sun.6 mph94%30.18 "HgN/A
8:00 AM63 °FMore clouds than sun.3 mph100%30.15 "HgN/A
7:00 AM61 °FMore clouds than sun.5 mph100%30.12 "HgN/A
6:00 AM61 °FBroken clouds.6 mph100%30.09 "HgN/A
5:00 AM63 °FPartly cloudy.6 mph100%30.09 "HgN/A
4:00 AM63 °FPassing clouds.5 mph100%30.09 "HgN/A
3:00 AM63 °FPartly cloudy.3 mph100%30.09 "HgN/A
2:00 AM61 °FPartly cloudy.6 mph100%30.09 "HgN/A
1:00 AM61 °FPartly cloudy.6 mph100%30.12 "HgN/A
12:00 AM63 °FPartly cloudy.7 mph100%30.12 "HgN/A
11:00 PM
Apr 19
64 °FLight rain. Partly cloudy.5 mph100%30.15 "Hg2 mi
10:00 PM64 °FLight rain. Partly cloudy.6 mph100%30.15 "Hg2 mi
9:00 PM64 °FPassing clouds.3 mph100%30.12 "HgN/A
8:00 PM63 °FPassing clouds.2 mph100%30.12 "HgN/A
7:00 PM64 °FPartly cloudy.3 mph94%30.12 "HgN/A
6:00 PM66 °FPassing clouds.3 mph94%30.09 "HgN/A
5:00 PM70 °FPassing clouds.10 mph78%30.09 "HgN/A
4:00 PM75 °FScattered clouds.8 mph61%30.07 "HgN/A
3:00 PM77 °FPartly sunny.12 mph54%30.04 "HgN/A
2:00 PM79 °FScattered clouds.6 mph54%30.04 "HgN/A
1:00 PM79 °FScattered clouds.6 mph54%30.07 "HgN/A
12:00 PM79 °FScattered clouds.7 mph58%30.09 "HgN/A
Weather by CustomWeather, © 2014

See weather overview